Location: Peach Mountain Observatory
(42.3967°N, 83.9367°W)
Time: 02:23:55
(UTC-05:00)

S-56A Canister/Altair - Pass Details

Date: 24 January 2020
Orbit: 633 x 2499 km, 38.9° (Epoch: 20 February)

Event Time Altitude Azimuth Distance (km) Brightness Sun altitude
Rises 00:42:04 0° 272° (W) 3,073 - -66.9°
Reaches altitude 10° 00:44:35 10° 266° (W) 2,062 - -66.9°
Maximum altitude 00:48:53 45° 193° (SSW) 864 - -66.9°
Drops below altitude 10° 00:53:16 10° 121° (ESE) 2,096 - -66.9°
Sets 00:55:50 0° 115° (ESE) 3,130 - -66.9°
